ASTRA 1L

Last updated on Sun Jun 21 2026 00:03:04 GMT+0000 (Coordinated Universal Time)

1 31306U 07016A 26171.38713045 -.00000189 00000+0 00000+0 0 9992 2 31306 1.3311 81.5582 0005349 13.7881 288.1363 1.00270966 45014
UTC large
Height (km)
Speed (km/s)
/
Latitude / Longitude
Inclination (degrees)
Orbital Period (minutes)
Azimuth
Elevation
Range (km)
Doppler Factor

Next 0 passes for location: London (51.5072 / 0.1276)

No passes found over London.
ASTRA 1L